• In Spain
  • List of Countries
  • For 7 days
  • Water Temperature
  • Satellite Maps
  • Weather Map
  • Weather Widgets
  • user-avatar
    Login

    Hourly Weather San Juan

    Today, 19 October, Friday

    Time Temperature Precipitation Wind Pressure Humidity
    00:00 +17°C° 0 mm 5 mps 709 mmHg 76%
    01:00 +18°C° 0 mm 4 mps 708 mmHg 77%
    02:00 +18°C° 0 mm 4 mps 708 mmHg 77%
    03:00 +18°C° 0 mm 3 mps 708 mmHg 78%
    04:00 +17°C° 0 mm 3 mps 708 mmHg 79%
    05:00 +18°C° 0 mm 3 mps 708 mmHg 76%
    06:00 +18°C° 0 mm 3 mps 708 mmHg 74%
    07:00 +19°C° 0 mm 2 mps 708 mmHg 71%
    08:00 +20°C° 0 mm 2 mps 708 mmHg 67%
    09:00 +23°C° 0 mm 2 mps 708 mmHg 62%
    10:00 +24°C° 0 mm 2 mps 707 mmHg 57%
    11:00 +25°C° 0 mm 3 mps 707 mmHg 53%
    12:00 +26°C° 0 mm 3 mps 706 mmHg 49%
    13:00 +28°C° 0 mm 4 mps 706 mmHg 45%
    14:00 +28°C° 0.2 mm 4 mps 706 mmHg 46%
    15:00 +27°C° 0.2 mm 5 mps 705 mmHg 47%
    16:00 +27°C° 0.2 mm 6 mps 705 mmHg 48%
    17:00 +26°C° 0.3 mm 5 mps 706 mmHg 55%
    18:00 +23°C° 0.3 mm 5 mps 706 mmHg 61%
    19:00 +22°C° 0.3 mm 5 mps 707 mmHg 67%
    20:00 +21°C° 0 mm 5 mps 707 mmHg 70%
    21:00 +21°C° 0 mm 5 mps 707 mmHg 73%
    22:00 +20°C° 0 mm 4 mps 707 mmHg 76%
    23:00 +20°C° 0 mm 4 mps 707 mmHg 77%

    Tomorrow, 20 October, Saturday

    Time Temperature Precipitation Wind Pressure Humidity
    00:00 +19°C° 0 mm 4 mps 706 mmHg 78%
    01:00 +19°C° 0 mm 3 mps 706 mmHg 79%
    02:00 +19°C° 0 mm 3 mps 706 mmHg 80%
    03:00 +18°C° 0 mm 3 mps 706 mmHg 80%
    04:00 +18°C° 0 mm 3 mps 705 mmHg 80%
    05:00 +19°C° 0 mm 3 mps 705 mmHg 78%
    06:00 +19°C° 0 mm 3 mps 706 mmHg 75%
    07:00 +19°C° 0 mm 3 mps 706 mmHg 73%
    08:00 +21°C° 0 mm 3 mps 706 mmHg 68%
    09:00 +22°C° 0 mm 3 mps 706 mmHg 63%
    10:00 +24°C° 0 mm 3 mps 706 mmHg 58%
    11:00 +25°C° 0 mm 3 mps 705 mmHg 52%
    12:00 +27°C° 0 mm 3 mps 705 mmHg 46%
    13:00 +28°C° 0 mm 3 mps 704 mmHg 41%
    14:00 +28°C° 0 mm 3 mps 704 mmHg 40%
    15:00 +28°C° 0 mm 3 mps 703 mmHg 38%
    16:00 +28°C° 0 mm 3 mps 703 mmHg 37%
    17:00 +27°C° 0 mm 3 mps 704 mmHg 42%
    18:00 +26°C° 0 mm 3 mps 704 mmHg 47%
    19:00 +25°C° 0 mm 2 mps 705 mmHg 51%
    20:00 +25°C° 0 mm 2 mps 705 mmHg 54%
    21:00 +24°C° 0 mm 2 mps 705 mmHg 57%
    22:00 +24°C° 0 mm 1 mps 705 mmHg 60%
    23:00 +23°C° 0 mm 1 mps 705 mmHg 61%

    Day after tomorrow, 21 October, Sunday

    Time Temperature Precipitation Wind Pressure Humidity
    00:00 +23°C° 0 mm 2 mps 705 mmHg 63%
    01:00 +21°C° 0 mm 2 mps 704 mmHg 64%
    02:00 +21°C° 0 mm 2 mps 704 mmHg 64%
    03:00 +20°C° 0 mm 2 mps 704 mmHg 65%
    04:00 +20°C° 0 mm 2 mps 704 mmHg 66%
    05:00 +21°C° 0 mm 2 mps 704 mmHg 63%
    06:00 +21°C° 0 mm 2 mps 704 mmHg 61%
    07:00 +23°C° 0 mm 2 mps 705 mmHg 58%
    08:00 +25°C° 0 mm 2 mps 705 mmHg 54%
    09:00 +26°C° 0 mm 2 mps 704 mmHg 49%
    10:00 +27°C° 0 mm 3 mps 704 mmHg 45%
    11:00 +28°C° 0 mm 3 mps 704 mmHg 41%
    12:00 +30°C° 0 mm 3 mps 703 mmHg 37%
    13:00 +32°C° 0 mm 4 mps 703 mmHg 33%
    14:00 +32°C° 0 mm 4 mps 702 mmHg 33%
    15:00 +32°C° 0 mm 5 mps 702 mmHg 34%
    16:00 +30°C° 0 mm 5 mps 702 mmHg 35%
    17:00 +29°C° 0.1 mm 5 mps 702 mmHg 41%
    18:00 +28°C° 0.1 mm 5 mps 703 mmHg 46%
    19:00 +27°C° 0.1 mm 6 mps 704 mmHg 52%
    20:00 +26°C° 0.2 mm 6 mps 704 mmHg 57%
    21:00 +24°C° 0.2 mm 6 mps 704 mmHg 63%
    22:00 +23°C° 0.2 mm 6 mps 704 mmHg 68%
    23:00 +22°C° 0 mm 5 mps 704 mmHg 70%

    22 October, Monday

    Time Temperature Precipitation Wind Pressure Humidity
    00:00 +21°C° 0 mm 5 mps 703 mmHg 73%
    01:00 +21°C° 0 mm 5 mps 703 mmHg 75%
    02:00 +20°C° 0 mm 4 mps 703 mmHg 77%
    03:00 +20°C° 0 mm 4 mps 703 mmHg 79%
    04:00 +20°C° 0 mm 4 mps 703 mmHg 81%
    05:00 +20°C° 0.1 mm 4 mps 704 mmHg 80%
    06:00 +20°C° 0.1 mm 4 mps 704 mmHg 80%
    07:00 +20°C° 0.1 mm 4 mps 704 mmHg 79%
    08:00 +21°C° 0 mm 4 mps 704 mmHg 74%
    09:00 +21°C° 0 mm 5 mps 704 mmHg 70%
    10:00 +22°C° 0 mm 5 mps 704 mmHg 66%
    11:00 +23°C° 0 mm 6 mps 704 mmHg 62%
    12:00 +24°C° 0 mm 6 mps 703 mmHg 58%
    13:00 +24°C° 0 mm 6 mps 703 mmHg 54%
    14:00 +24°C° 0 mm 6 mps 703 mmHg 54%
    15:00 +24°C° 0 mm 7 mps 703 mmHg 54%
    16:00 +24°C° 0 mm 7 mps 703 mmHg 54%
    17:00 +23°C° 0 mm 6 mps 704 mmHg 58%
    18:00 +22°C° 0 mm 5 mps 705 mmHg 62%
    19:00 +21°C° 0 mm 5 mps 705 mmHg 66%
    20:00 +21°C° 0 mm 5 mps 706 mmHg 69%
    21:00 +20°C° 0 mm 5 mps 706 mmHg 72%
    22:00 +20°C° 0 mm 5 mps 707 mmHg 75%
    23:00 +19°C° 0 mm 5 mps 706 mmHg 76%

    23 October, Tuesday

    Time Temperature Precipitation Wind Pressure Humidity
    00:00 +19°C° 0 mm 5 mps 706 mmHg 78%
    01:00 +17°C° 0 mm 5 mps 706 mmHg 79%
    02:00 +17°C° 0 mm 5 mps 706 mmHg 80%
    03:00 +17°C° 0 mm 4 mps 706 mmHg 80%
    04:00 +17°C° 0 mm 4 mps 706 mmHg 80%
    05:00 +17°C° 0.1 mm 4 mps 707 mmHg 79%
    06:00 +17°C° 0.1 mm 4 mps 707 mmHg 77%
    07:00 +17°C° 0.1 mm 4 mps 707 mmHg 76%
    08:00 +18°C° 0 mm 4 mps 707 mmHg 71%
    09:00 +19°C° 0 mm 4 mps 707 mmHg 65%
    10:00 +20°C° 0 mm 4 mps 707 mmHg 60%
    11:00 +22°C° 0 mm 4 mps 706 mmHg 57%
    12:00 +24°C° 0 mm 3 mps 706 mmHg 53%
    13:00 +25°C° 0 mm 3 mps 705 mmHg 50%
    14:00 +25°C° 0 mm 3 mps 705 mmHg 50%
    15:00 +25°C° 0 mm 4 mps 704 mmHg 50%
    16:00 +25°C° 0 mm 4 mps 704 mmHg 50%
    17:00 +23°C° 0 mm 4 mps 705 mmHg 54%
    18:00 +22°C° 0 mm 4 mps 705 mmHg 58%
    19:00 +21°C° 0 mm 3 mps 705 mmHg 61%
    20:00 +21°C° 0 mm 3 mps 705 mmHg 63%
    21:00 +21°C° 0 mm 2 mps 705 mmHg 66%
    22:00 +20°C° 0 mm 2 mps 706 mmHg 68%
    23:00 +20°C° 0 mm 2 mps 705 mmHg 69%

    24 October, Wednesday

    Time Temperature Precipitation Wind Pressure Humidity
    00:00 +20°C° 0 mm 2 mps 705 mmHg 71%
    01:00 +19°C° 0 mm 2 mps 704 mmHg 72%
    02:00 +19°C° 0 mm 2 mps 704 mmHg 75%
    03:00 +19°C° 0 mm 2 mps 704 mmHg 77%
    04:00 +18°C° 0 mm 2 mps 704 mmHg 79%
    05:00 +19°C° 0 mm 2 mps 704 mmHg 75%
    06:00 +19°C° 0 mm 2 mps 704 mmHg 72%
    07:00 +20°C° 0 mm 2 mps 704 mmHg 68%
    08:00 +21°C° 0 mm 2 mps 704 mmHg 61%
    09:00 +24°C° 0 mm 2 mps 704 mmHg 55%
    10:00 +25°C° 0 mm 2 mps 703 mmHg 48%
    11:00 +27°C° 0 mm 2 mps 703 mmHg 42%
    12:00 +28°C° 0 mm 3 mps 702 mmHg 36%
    13:00 +30°C° 0 mm 3 mps 702 mmHg 30%
    14:00 +30°C° 0 mm 4 mps 702 mmHg 29%
    15:00 +30°C° 0 mm 4 mps 701 mmHg 28%
    16:00 +30°C° 0 mm 4 mps 701 mmHg 27%
    17:00 +29°C° 0 mm 3 mps 701 mmHg 31%
    18:00 +28°C° 0 mm 2 mps 702 mmHg 36%
    19:00 +26°C° 0 mm 1 mps 702 mmHg 40%
    20:00 +26°C° 0 mm 2 mps 702 mmHg 41%
    21:00 +25°C° 0 mm 2 mps 703 mmHg 42%
    22:00 +24°C° 0 mm 3 mps 703 mmHg 43%
    23:00 +24°C° 0 mm 3 mps 702 mmHg 45%
    Show more